GW2474 Weather Reports


Display with metric or nautical units.
time (UTC)temp
F
wind
direction
speed
MPH
gust
MPH
rain 1hr
in
rain 24hr
in
rain mn
in
humidity
%
barometer
mb
20260503193059 61 119 9.0 22.0 0.00 0.00 0.00 42 1011.2
20260503191603 62 264 6.0 18.0 0.00 0.00 0.00 43 1011.5
20260503190051 61 287 7.0 19.0 0.00 0.00 0.00 44 1011.7
20260503184552 61 269 7.0 18.0 0.00 0.00 0.00 43 1011.8
20260503183112 61 257 6.0 19.0 0.00 0.00 0.00 44 1012.1
20260503181614 59 242 6.0 20.0 0.00 0.00 0.00 46 1012.1
20260503180052 59 292 11.0 17.0 0.00 0.00 0.00 43 1012.4
20260503174553 59 286 10.0 23.0 0.00 0.00 0.00 45 1012.7
20260503173059 59 269 7.0 21.0 0.00 0.00 0.00 43 1012.9
20260503171558 58 290 9.0 19.0 0.00 0.00 0.00 45 1013.2
20260503100104 38 182 1.0 5.0 0.00 0.00 0.00 67 1014.6
20260503081552 37 230 0.0 2.0 0.00 0.00 0.00 68 1015.3
20260503071558 38 0 0.0 2.0 0.00 0.00 0.00 68 1015.5
20260503070110 38 0 0.0 2.0 0.00 0.00 0.00 68 1015.4
20260503060114 37 296 1.0 3.0 0.00 0.00 0.00 70 1015.9
20260503054559 37 296 0.0 2.0 0.00 0.00 0.00 70 1016.0
20260503053052 37 0 0.0 1.0 0.00 0.00 0.00 69 1016.1
20260503051554 38 0 0.0 2.0 0.00 0.00 0.00 69 1016.1
20260503050053 38 0 0.0 2.0 0.00 0.00 0.00 68 1016.3
20260503044548 39 0 0.0 3.0 0.00 0.00 0.00 68 1016.3
20260503043050 39 0 0.0 2.0 0.00 0.00 0.00 68 1016.2
20260503041555 39 0 0.0 2.0 0.00 0.00 0.00 68 1016.3
20260503040051 39 0 0.0 2.0 0.00 0.00 0.00 68 1016.4
20260503034606 40 0 0.0 1.0 0.00 0.00 0.00 68 1016.5
20260503033056 40 0 0.0 2.0 0.00 0.00 0.00 67 1016.5
20260503031557 41 296 0.0 2.0 0.00 0.00 0.00 66 1016.5
20260503030058 41 296 0.0 1.0 0.00 0.00 0.00 66 1016.6
20260503024556 41 0 0.0 1.0 0.00 0.00 0.00 64 1016.6
20260503023108 42 0 0.0 1.0 0.00 0.00 0.00 62 1016.7
20260503021553 43 0 0.0 1.0 0.00 0.00 0.00 60 1016.6
20260503020100 44 0 0.0 1.0 0.00 0.00 0.00 57 1016.4
20260503014604 44 0 0.0 2.0 0.00 0.00 0.00 56 1016.4
20260503013109 45 0 0.0 1.0 0.00 0.00 0.00 55 1016.2
20260503011610 45 315 0.0 1.0 0.00 0.00 0.00 54 1016.2
20260503010122 46 0 0.0 1.0 0.00 0.00 0.00 52 1016.1
20260503004600 46 0 0.0 1.0 0.00 0.00 0.00 50 1016.0
20260503003113 46 0 0.0 2.0 0.00 0.00 0.00 49 1015.9
20260503001610 47 315 1.0 5.0 0.00 0.00 0.00 49 1015.9
20260503000057 47 324 1.0 4.0 0.00 0.00 0.00 48 1015.9
20260502234548 47 308 2.0 8.0 0.00 0.00 0.00 49 1015.9
20260502233051 47 254 1.0 7.0 0.00 0.00 0.00 48 1016.0
20260502231555 47 338 3.0 9.0 0.00 0.00 0.00 47 1016.1
20260502230051 47 306 4.0 9.0 0.00 0.00 0.00 47 1016.1
20260502224552 47 342 3.0 9.0 0.00 0.00 0.00 47 1016.2
20260502223054 47 327 3.0 8.0 0.00 0.00 0.00 46 1016.2
20260502221554 47 342 2.0 8.0 0.00 0.00 0.00 45 1016.3
20260502220053 47 15 3.0 9.0 0.00 0.00 0.00 45 1016.3
20260502214617 47 337 6.0 11.0 0.00 0.00 0.00 44 1016.3
20260502213056 47 270 4.0 10.0 0.00 0.00 0.00 46 1016.3
20260502211604 47 325 5.0 10.0 0.00 0.00 0.00 45 1016.4
20260502210057 47 322 5.0 11.0 0.00 0.00 0.00 44 1016.5
20260502204554 47 279 2.0 12.0 0.00 0.00 0.00 47 1016.5
20260502203105 47 331 7.0 14.0 0.00 0.00 0.00 45 1016.7
20260502201605 47 339 6.0 13.0 0.00 0.00 0.00 45 1016.8
20260502200053 47 319 5.0 10.0 0.00 0.00 0.00 45 1016.9
20260502194557 46 335 4.0 12.0 0.00 0.00 0.00 47 1017.0